Weather History for K40B - November, 2012

Change the Weather History Date:

Sunday, November 25, 2012

  Actual Average Record
Temperature  
Mean Temperature 24 °F -  
Max Temperature 26 °F 33 °F 54 °F (2004)
Min Temperature 21 °F 17 °F 8 °F (1997)
Degree Days  
Heating Degree Days 42    
Moisture  
Dew Point 14 °F    
Average Humidity 66    
Maximum Humidity 75    
Minimum Humidity 58    
Precipitation  
Precipitation 0.00 in - - ()
Sea Level Pressure  
Sea Level Pressure 29.45 in    
Wind  
Wind Speed 9 mph (WSW)    
Max Wind Speed 14 mph    
Max Gust Speed 34 mph    
Averages and records for this station are not official NWS values.
T = Trace of Precipitation, MM = Missing Value Source: NWS Daily Summary

Daily Weather History Graph

Daily Weather History Graph

Search for Another Location

Airport or City:

Trip Planner

Search our weather history database for the weather conditions in past years. The results will help you decide how hot, cold, wet, or windy it might be!

Date:

Astronomy

Nov. 25, 2012 Rise Set
Actual Time 6:54 AM EST 3:55 PM EST
Civil Twilight 6:20 AM EST 4:29 PM EST
Nautical Twilight 5:43 AM EST 5:06 PM EST
Astronomical Twilight 5:07 AM EST 5:42 PM EST
Moon 2:16 PM EST (11/25) 3:58 AM EST (11/25)
Length of Visible Light 10h 08m
Length of Day
9h 00m
Waxing Gibbous, 93% of the Moon is Illuminated
Nov 25
Waxing Gibbous
Nov 28
Full
Dec 6
Last Quarter
Dec 13
New
Dec 20
First Quarter

Hourly Weather History & Observations

Time (EST) Temp. Windchill Dew Point Humidity Pressure Visibility Wind Dir Wind Speed Gust Speed Precip Events Conditions
12:25 AM 26.2 °F 18.6 °F 19.2 °F 75% 29.34 in - Variable 6.9 mph 19.6 mph N/A   Unknown
1:25 AM 25.2 °F 16.5 °F 17.8 °F 74% 29.34 in - WSW 8.1 mph 18.4 mph N/A   Unknown
2:25 AM 24.3 °F 14.6 °F 16.7 °F 73% 29.36 in - WSW 9.2 mph 20.7 mph N/A   Unknown
3:25 AM 23.9 °F 15.8 °F 15.8 °F 71% 29.37 in - WSW 6.9 mph 18.4 mph N/A   Unknown
4:25 AM 23.7 °F 15.6 °F 15.1 °F 70% 29.37 in - WSW 6.9 mph 20.7 mph N/A   Unknown
5:25 AM 23.4 °F 12.8 °F 15.4 °F 72% 29.36 in - WSW 10.4 mph 21.9 mph N/A   Unknown
6:25 AM 23.0 °F 14.7 °F 14.7 °F 71% 29.38 in - SW 6.9 mph 28.8 mph N/A   Unknown
7:25 AM 22.8 °F 13.6 °F 15.4 °F 73% 29.40 in - West 8.1 mph 25.3 mph 0.00 in   Unknown
8:25 AM 24.4 °F 16.5 °F 16.0 °F 70% 29.40 in - Variable 6.9 mph 21.9 mph N/A   Unknown
9:25 AM 24.8 °F 16.9 °F 14.2 °F 64% 29.42 in - West 6.9 mph 31.1 mph N/A   Unknown
10:25 AM 25.0 °F 14.2 °F 14.7 °F 65% 29.42 in - SW 11.5 mph 23.0 mph N/A   Unknown
11:25 AM 25.7 °F 17.1 °F 13.8 °F 61% 29.42 in - WSW 8.1 mph 34.5 mph N/A   Unknown
12:50 PM 25.2 °F 15.1 °F 12.4 °F 58% 29.42 in - WSW 10.4 mph 29.9 mph N/A   Unknown
1:31 PM 25.0 °F 13.1 °F 12.0 °F 58% 29.44 in - SW 13.8 mph 21.9 mph N/A   Unknown
2:25 PM 23.7 °F 12.1 °F 10.9 °F 58% 29.46 in - WSW 12.7 mph 31.1 mph N/A   Unknown
3:25 PM 23.2 °F 10.8 °F 10.8 °F 59% 29.47 in - WSW 13.8 mph 32.2 mph N/A   Unknown
4:25 PM 23.0 °F 11.1 °F 12.2 °F 63% 29.49 in - SW 12.7 mph 25.3 mph N/A   Unknown
5:25 PM 22.6 °F 11.3 °F 12.2 °F 64% 29.50 in - WSW 11.5 mph 24.2 mph N/A   Unknown
6:28 PM 22.1 °F 10.6 °F 9.5 °F 58% 29.53 in - WSW 11.5 mph 26.5 mph N/A   Unknown
7:25 PM 21.6 °F 13.0 °F 10.8 °F 63% 29.55 in - WSW 6.9 mph 21.9 mph 0.00 in   Unknown
8:25 PM 21.9 °F 13.4 °F 9.9 °F 60% 29.57 in - SW 6.9 mph 23.0 mph N/A   Unknown
9:25 PM 21.9 °F 12.5 °F 10.6 °F 62% 29.57 in - SW 8.1 mph 24.2 mph N/A   Unknown
10:25 PM 21.6 °F 13.0 °F 14.7 °F 75% 29.60 in - WSW 6.9 mph 20.7 mph N/A   Unknown
11:26 PM 21.6 °F 12.1 °F 12.9 °F 69% 29.62 in - SW 8.1 mph 21.9 mph N/A   Unknown